[[{"header":{"parameterUnit":"m.s-1","parameterCategory":1,"la1":30.2991,"la2":30.254,"lo1":-89.0895,"lo2":-89.0444,"dy":0.0017,"dx":0.0017,"nx":28,"ny":28,"refTime":"2025-01-11T03:00:00:Z","depth":0,"parameterNumber":2,"parameterNumberName":"U-component_of_WINDS"},"data":[0,0,0,0,0,0,0,0,0,0,0,0,0,0,0,0,0,0,0,0,0,0,0,0,0,0,0,0,0,0,0,0,0,0,0,0,0,0,0,0,0,0,0,0,0,0,0,0,0,0,0,0,0,0,0,0,0,0,6.0016,6.0017,0,6.0139,6.014,6.0142,6.0087,6.0084,6.0081,6.0078,6.0203,6.0209,6.0215,0,0,0,0,0,0,0,0,0,0,0,0,0,5.9733,5.9738,6.0016,6.0017,6.0019,6.0139,6.014,6.0142,6.0088,6.0084,6.008,6.0077,6.0201,6.0208,6.0215,0,0,0,0,0,0,0,0,0,0,0,0,0,5.9856,5.974,6.0015,6.0006,6.0006,6.0138,6.014,6.0142,6.0088,6.0084,6.0079,6.0075,6.0198,6.0207,6.0216,6.0364,0,0,6.0244,6.0248,0,0,0,0,0,0,0,0,5.9849,5.9866,6.0006,6.0007,6.0008,6.0093,6.0086,6.0217,6.0089,6.0057,6.0078,6.0073,6.017,6.0181,6.0214,6.037,6.0375,6.0245,6.0251,6.0255,6.0257,0,0,0,0,0,0,0,5.984,5.986,6.0064,6.0008,6.0009,5.9996,6.0008,6.0111,6.0137,6.006,6.0056,6.0071,6.0169,6.0205,6.0216,6.0377,6.0245,6.0253,6.0259,6.0262,6.0662,6.0667,0,0,0,0,0,0,5.9832,5.9854,6.006,6.0068,5.9915,6.0004,6.0018,6.007,6.0136,6.0142,6.0075,6.0068,6.0192,6.0206,6.0221,6.0399,6.0255,6.0263,6.0268,6.0657,6.0663,6.0668,0,0,0,0,0,0,5.9826,5.9851,6.0055,5.996,5.9985,6.0014,6.0073,6.0075,6.0111,6.0148,6.0152,6.0107,6.0189,6.0208,6.0329,6.0402,6.0267,6.0276,6.0651,6.0659,6.0666,6.0756,0,0,0,0,0,0,5.9818,5.9849,5.9906,5.9962,5.999,6.0162,6.0077,6.0081,6.0127,6.0119,6.0179,6.0184,6.0187,6.0316,6.0338,6.0413,6.0283,6.0644,6.0654,6.0663,6.0747,6.0766,6.0783,0,0,0,0,0,5.9808,5.9925,5.9909,5.9934,6.0062,6.0167,6.0183,6.0184,6.0133,6.019,6.0214,6.0182,6.0391,6.0329,6.0354,6.0432,6.064,6.0651,6.0663,6.0739,6.0762,6.0782,0,0,0,0,0,0,5.9876,5.9932,5.9915,6.0053,6.0106,6.0157,6.0229,6.0208,6.0275,6.0265,6.0263,6.0277,6.0403,6.0429,6.0359,6.0579,6.0508,6.0525,6.0557,6.058,6.0597,6.0588,6.0291,0,0,0,0,0,5.9907,5.9988,6.0033,6.0151,6.0179,6.02,6.0245,6.0242,6.0295,6.0317,6.035,6.0403,6.0481,6.0531,6.0605,6.0751,6.0763,6.0817,6.0835,6.0849,6.0864,6.0944,6.0969,6.0706,6.0706,6.0706,0,0,5.9972,6.0013,6.0064,6.0166,6.0206,6.029,6.0218,6.031,6.0372,6.0331,6.0448,6.0474,6.0533,6.0668,6.0729,6.0694,6.0939,6.0864,6.0875,6.0882,6.0959,6.0983,6.1005,6.0714,6.0712,6.0711,0,0,6.0134,6.0173,6.0276,6.0318,6.038,6.0394,6.0419,6.0474,6.0491,6.0608,6.0579,6.0653,6.0787,6.0831,6.087,6.1051,6.1025,6.1075,6.1168,6.1246,6.1267,6.1285,6.135,6.1374,6.109,6.109,6.109,0,6.0206,6.0332,6.0332,6.0426,6.0472,6.044,6.0545,6.0586,6.0668,6.0701,6.0661,6.0829,6.0866,6.1012,6.1056,6.1089,6.1118,6.1068,6.1264,6.1283,6.13,6.1362,6.1386,6.1096,6.1095,6.1094,6.1094,0,6.0419,6.0507,6.0583,6.0665,6.072,6.0819,6.0833,6.0889,6.0881,6.0899,6.102,6.1064,6.1146,6.1181,6.1173,6.1326,6.1302,6.1264,6.1191,6.1331,6.1389,6.1413,6.1104,6.1102,6.11,6.1099,0,0,6.0625,6.0707,6.0735,6.0773,6.084,6.0908,6.1006,6.1088,6.1136,6.1194,6.1277,6.1392,6.1357,6.1402,6.1399,6.1468,6.161,6.1421,6.1423,6.1455,6.1782,6.181,6.1838,6.1593,6.1597,6.1601,6.1777,0,6.0792,6.0965,6.0968,6.1127,6.1208,6.118,6.1265,6.1316,6.1336,6.1408,6.1429,6.1511,6.1459,6.1486,6.1553,6.1578,6.1675,6.1566,6.167,6.1674,6.1656,6.1868,6.1898,6.2062,6.1799,6.1803,6.1806,0,6.101,6.1077,6.1244,6.1301,6.1335,6.1412,6.1488,6.1557,6.1614,6.1624,6.1676,6.1664,6.1764,6.169,6.1829,6.1754,6.1797,6.1816,6.1823,6.1832,6.1748,6.1884,6.2114,6.2139,6.1842,6.1839,6.1836,0,6.1144,6.1276,6.1393,6.1426,6.1496,6.1551,6.1582,6.1635,6.1684,6.175,6.1783,6.186,6.1902,6.1962,6.1971,6.1915,6.2111,6.2036,6.2121,6.2122,6.2163,6.2161,6.2404,6.2191,6.2191,6.219,6.219,0,6.133,6.1434,6.1455,6.1527,6.1643,6.1646,6.176,6.1787,6.1834,6.1911,6.1891,6.1964,6.1971,6.2046,6.2054,6.2169,6.2187,6.2198,6.2199,6.22,6.2199,6.2228,6.2217,6.2197,6.2196,6.2194,6.2193,0,6.15,6.1518,6.1644,6.17,6.1717,6.1799,6.1847,6.1916,6.1935,6.2033,6.2056,6.2085,6.2172,6.2187,6.229,6.2295,6.2432,6.2421,6.2413,6.2412,6.2496,6.2488,6.2767,6.2804,6.2567,6.2569,6.2571,0,6.1617,6.1696,6.1761,6.1812,6.1846,6.1928,6.1979,6.1985,6.2039,6.2111,6.2172,6.2258,6.2327,6.2468,6.2498,6.2577,6.2568,6.266,6.2579,6.2578,6.257,6.2565,6.2573,6.2675,6.2678,6.268,6.2682,0,6.1824,6.183,6.1904,6.1983,6.2044,6.2106,6.2164,6.2206,6.2221,6.2282,6.2372,6.2426,6.2532,6.2617,6.2696,6.2728,6.2708,6.2707,6.2731,6.2733,6.2725,6.2731,6.2456,6.27,6.2699,6.2697,6.2696,6.2695,6.1972,6.2041,6.2098,6.2182,6.2227,6.2282,6.2351,6.2378,6.2454,6.2541,6.254,6.2639,6.2695,6.2799,6.2837,6.2914,6.2884,6.2919,6.2928,6.2936,6.2945,6.2713,6.2928,6.2928,6.2927,6.2927,6.2927,0,6.2178,6.2213,6.2291,6.2374,6.244,6.2416,6.248,6.2537,6.2624,6.2679,6.2748,6.2852,6.2935,6.2973,6.3055,6.311,6.3103,6.3131,6.3127,6.3135,6.2966,6.2937,6.3135,6.3135,6.3135,6.3135,6.3135,6.3135,6.2293,6.241,6.2423,6.2562,6.2597,6.2694,6.2732,6.2784,6.2828,6.2945,6.3014,6.3039,6.3087,6.3173,6.3248,6.3257,6.3288,6.3321,6.3326,6.3168,6.3146,6.3126,6.3099,6.3328,6.3328,6.3488,6.349,6.3491]},{"header":{"parameterUnit":"m.s-1","parameterCategory":1,"la1":30.2991,"la2":30.254,"lo1":-89.0895,"lo2":-89.0444,"dy":0.0017,"dx":0.0017,"nx":28,"ny":28,"refTime":"2025-01-11T03:00:00:Z","depth":0,"parameterNumber":3,"parameterNumberName":"V-component_of_WINDS"},"data":[0,0,0,0,0,0,0,0,0,0,0,0,0,0,0,0,0,0,0,0,0,0,0,0,0,0,0,0,0,0,0,0,0,0,0,0,0,0,0,0,0,0,0,0,0,0,0,0,0,0,0,0,0,0,0,0,0,0,-5.1117,-5.1119,0,-5.1266,-5.1268,-5.1269,-5.1251,-5.1249,-5.1246,-5.1244,-5.1394,-5.14,-5.1406,0,0,0,0,0,0,0,0,0,0,0,0,0,-5.0815,-5.0821,-5.1117,-5.1119,-5.1121,-5.1266,-5.1268,-5.127,-5.1251,-5.1248,-5.1246,-5.1243,-5.1392,-5.1399,-5.1406,0,0,0,0,0,0,0,0,0,0,0,0,0,-5.0953,-5.0823,-5.1117,-5.1129,-5.1132,-5.1265,-5.1268,-5.127,-5.1252,-5.1248,-5.1245,-5.1241,-5.1389,-5.1398,-5.1407,-5.1537,0,0,-5.1436,-5.144,0,0,0,0,0,0,0,0,-5.0946,-5.0964,-5.1125,-5.1128,-5.1132,-5.1236,-5.1216,-5.136,-5.1253,-5.1206,-5.1244,-5.124,-5.1344,-5.1357,-5.1393,-5.1544,-5.1551,-5.1437,-5.1443,-5.1447,-5.1449,0,0,0,0,0,0,0,-5.0936,-5.0958,-5.1176,-5.1128,-5.1132,-5.1127,-5.1142,-5.1243,-5.1293,-5.121,-5.1209,-5.1227,-5.1345,-5.1384,-5.1396,-5.1553,-5.1437,-5.1445,-5.1451,-5.1454,-5.182,-5.1824,0,0,0,0,0,0,-5.0924,-5.095,-5.1171,-5.118,-5.1028,-5.1135,-5.1153,-5.1206,-5.1292,-5.1302,-5.123,-5.1226,-5.1369,-5.1385,-5.1401,-5.156,-5.1446,-5.1455,-5.1461,-5.1816,-5.1821,-5.1825,0,0,0,0,0,0,-5.0917,-5.0944,-5.1165,-5.1065,-5.1093,-5.1144,-5.1205,-5.1211,-5.125,-5.1307,-5.1316,-5.126,-5.1367,-5.1388,-5.1504,-5.1565,-5.1459,-5.1468,-5.1811,-5.1817,-5.1823,-5.1877,0,0,0,0,0,0,-5.0909,-5.0941,-5.0992,-5.1066,-5.1098,-5.1266,-5.1208,-5.1217,-5.1266,-5.1262,-5.1338,-5.1347,-5.1366,-5.149,-5.1513,-5.1576,-5.1475,-5.1806,-5.1814,-5.1821,-5.187,-5.1885,-5.1897,0,0,0,0,0,-5.0898,-5.1,-5.0994,-5.1021,-5.1162,-5.127,-5.1288,-5.1308,-5.1271,-5.1322,-5.1359,-5.1345,-5.1554,-5.1502,-5.1528,-5.1594,-5.1802,-5.1811,-5.182,-5.1864,-5.1882,-5.1896,0,0,0,0,0,0,-5.093,-5.101,-5.1004,-5.1134,-5.1195,-5.1266,-5.1331,-5.1326,-5.1398,-5.1391,-5.1412,-5.1429,-5.1547,-5.1582,-5.1522,-5.1725,-5.1673,-5.1688,-5.1698,-5.1715,-5.1728,-5.1717,-5.1483,0,0,0,0,0,-5.0952,-5.1034,-5.1099,-5.1207,-5.1238,-5.1279,-5.1327,-5.1337,-5.1401,-5.1427,-5.1472,-5.1534,-5.1614,-5.1666,-5.1743,-5.1875,-5.1892,-5.1933,-5.1947,-5.1957,-5.197,-5.2043,-5.2063,-5.1855,-5.1855,-5.1855,0,0,-5.0999,-5.1053,-5.1103,-5.1215,-5.1263,-5.1347,-5.1301,-5.1391,-5.1453,-5.144,-5.1553,-5.1589,-5.1659,-5.1784,-5.1842,-5.1817,-5.2031,-5.1969,-5.1977,-5.1984,-5.2055,-5.2075,-5.2092,-5.1862,-5.186,-5.1859,0,0,-5.1127,-5.1176,-5.1271,-5.1322,-5.1396,-5.1423,-5.1446,-5.1519,-5.1543,-5.1656,-5.1649,-5.1722,-5.1859,-5.191,-5.1954,-5.2102,-5.2092,-5.2126,-5.2195,-5.2267,-5.2283,-5.2298,-5.2352,-5.2371,-5.2139,-5.2139,-5.2139,0,-5.1175,-5.1301,-5.1321,-5.1413,-5.1462,-5.1456,-5.1553,-5.16,-5.1696,-5.173,-5.1702,-5.1874,-5.1921,-5.2059,-5.2095,-5.213,-5.2157,-5.2118,-5.228,-5.2294,-5.2308,-5.236,-5.238,-5.2143,-5.2142,-5.2142,-5.2141,0,-5.1357,-5.1445,-5.1513,-5.1607,-5.1664,-5.1758,-5.1792,-5.1848,-5.1853,-5.1883,-5.1999,-5.2056,-5.2144,-5.2177,-5.2183,-5.2316,-5.2299,-5.2275,-5.2223,-5.2332,-5.238,-5.24,-5.2148,-5.2147,-5.2145,-5.2145,0,0,-5.1509,-5.1614,-5.1639,-5.1682,-5.1764,-5.1832,-5.1925,-5.2013,-5.206,-5.2127,-5.2206,-5.2322,-5.2301,-5.2351,-5.2362,-5.2425,-5.254,-5.2393,-5.2395,-5.2419,-5.2691,-5.2709,-5.2732,-5.2534,-5.2537,-5.254,-5.2685,0,-5.1646,-5.1812,-5.1834,-5.1981,-5.2063,-5.2058,-5.2139,-5.2198,-5.2229,-5.2302,-5.2335,-5.2418,-5.2383,-5.2413,-5.2475,-5.2513,-5.2595,-5.2503,-5.2607,-5.2611,-5.2591,-5.2757,-5.2776,-5.291,-5.2704,-5.2708,-5.271,0,-5.1827,-5.19,-5.2056,-5.2128,-5.2163,-5.2236,-5.2319,-5.2389,-5.2456,-5.2474,-5.253,-5.2534,-5.263,-5.2574,-5.2708,-5.2645,-5.2689,-5.2714,-5.2719,-5.273,-5.2667,-5.2773,-5.2953,-5.2974,-5.274,-5.2738,-5.2735,0,-5.1924,-5.2061,-5.2172,-5.2209,-5.2295,-5.2347,-5.2385,-5.2449,-5.2501,-5.2572,-5.2606,-5.2688,-5.2732,-5.2795,-5.2821,-5.2778,-5.2953,-5.2899,-5.2971,-5.297,-5.3008,-5.3006,-5.3199,-5.3036,-5.3035,-5.3035,-5.3035,0,-5.2075,-5.217,-5.2217,-5.2285,-5.2393,-5.2416,-5.2521,-5.2557,-5.2614,-5.269,-5.269,-5.276,-5.2789,-5.2865,-5.2885,-5.2993,-5.3013,-5.303,-5.3034,-5.3031,-5.3029,-5.306,-5.3052,-5.304,-5.3039,-5.3038,-5.3037,0,-5.2201,-5.2235,-5.2357,-5.2429,-5.245,-5.2526,-5.2588,-5.2654,-5.2684,-5.2779,-5.2803,-5.285,-5.2939,-5.297,-5.3077,-5.3091,-5.3217,-5.3213,-5.3195,-5.3196,-5.3266,-5.3259,-5.3487,-5.3518,-5.3333,-5.3335,-5.3336,0,-5.2295,-5.2369,-5.245,-5.2501,-5.2541,-5.2623,-5.2676,-5.2702,-5.2757,-5.2839,-5.2896,-5.2984,-5.3056,-5.3198,-5.3241,-5.3324,-5.3322,-5.3396,-5.3335,-5.3329,-5.3324,-5.332,-5.3328,-5.3408,-5.341,-5.3411,-5.3413,0,-5.2459,-5.2473,-5.2549,-5.2633,-5.2696,-5.2763,-5.2827,-5.2869,-5.2904,-5.2966,-5.3057,-5.3113,-5.3224,-5.3312,-5.3396,-5.3435,-5.343,-5.3432,-5.3453,-5.345,-5.3437,-5.3446,-5.3227,-5.3427,-5.3425,-5.3424,-5.3423,-5.3423,-5.2573,-5.2638,-5.2706,-5.2792,-5.2843,-5.2904,-5.297,-5.3009,-5.3086,-5.3178,-5.3188,-5.3287,-5.3352,-5.3465,-5.3508,-5.3585,-5.3565,-5.3595,-5.3603,-5.361,-5.3616,-5.3424,-5.3601,-5.36,-5.36,-5.36,-5.3599,0,-5.2737,-5.2781,-5.2859,-5.295,-5.3018,-5.3008,-5.3079,-5.3136,-5.3223,-5.3285,-5.3357,-5.3462,-5.3547,-5.3598,-5.3683,-5.3735,-5.3735,-5.3757,-5.3754,-5.3763,-5.3629,-5.3603,-5.3756,-5.3756,-5.3756,-5.3756,-5.3756,-5.3756,-5.2831,-5.2942,-5.2964,-5.3101,-5.3144,-5.3241,-5.3282,-5.3338,-5.3388,-5.3506,-5.3577,-5.361,-5.3668,-5.3757,-5.3835,-5.3848,-5.388,-5.3904,-5.3914,-5.3788,-5.3772,-5.3757,-5.3732,-5.391,-5.391,-5.4042,-5.4044,-5.4044]}]]